Tracking 19246 objects as of 20-Aug-2018
HD Live streaming from Space Station
objects crossing your sky now

PORCUPINE 1

Track PORCUPINE 1 now!
10-day predictions
PORCUPINE 1 is classified as:


NORAD ID: 1272
Int'l Code: 1965-016H
Perigee: 902.8 km
Apogee: 939.4 km
Inclination: 70.1 °
Period: 103.3 minutes
Semi major axis: 7292 km
RCS: 0.248 m2 (medium)
Launch date: March 9, 1965
Source: United States (US)
Launch site: AIR FORCE WESTERN TEST RANGE (AFWTR)
aabbcc
Your satellite tracking list
Your tracking list is empty




NASA's NSSDC Master Catalog

Two Line Element Set (TLE):
1 01272U 65016H   18232.21080167 -.00000029  00000-0  17392-4 0  9999
2 01272  70.0786 198.8602 0025064 270.8213  89.0021 13.94196628718472
Source of the keplerian elements: AFSPC